Location: Newark
(35.3063°N, 139.5103°E)
Time: 20:48:46
(UTC+00:00)

Hubble Space Telescope - Visible Passes

Search period start: 13 December 2019 00:00
Search period end: 23 December 2019 00:00
Orbit: 536 x 540 km, 28.5° (Epoch: 12 December)

Date Brightness Start Highest point End Pass type
(mag) Time Alt. Az. Time Alt. Az. Time Alt. Az.
13 Dec 3.5 19:42:22 10° S 19:43:53 12° SSE 19:45:26 10° SE visible
14 Dec 3.3 19:31:55 13° S 19:33:11 14° SSE 19:35:27 10° SE visible
14 Dec 2.6 21:10:16 10° SW 21:13:49 28° S 21:17:23 10° ESE visible
15 Dec 3.1 19:22:21 17° SSE 19:22:29 17° SSE 19:25:12 10° ESE visible
15 Dec 2.4 20:59:31 10° SW 21:03:10 30° S 21:06:47 10° ESE visible
16 Dec 3.1 19:12:40 18° SSE 19:12:40 18° SSE 19:14:49 10° ESE visible
16 Dec 2.3 20:48:49 10° WSW 20:52:30 31° S 20:56:11 10° ESE visible
17 Dec 3.4 19:02:53 17° SE 19:02:53 17° SE 19:04:21 10° ESE visible
17 Dec 2.2 20:38:14 10° WSW 20:41:50 31° S 20:45:32 10° ESE visible
18 Dec 3.7 18:53:01 14° ESE 18:53:01 14° ESE 18:53:50 10° ESE visible
18 Dec 2.2 20:28:22 15° WSW 20:31:10 31° S 20:34:52 10° ESE visible
19 Dec 4.0 18:43:07 11° ESE 18:43:07 11° ESE 18:43:16 10° ESE visible
19 Dec 2.2 20:18:27 20° SW 20:20:31 30° S 20:24:10 10° ESE visible
20 Dec 2.2 20:08:31 24° SW 20:09:51 29° S 20:13:27 10° SE visible
21 Dec 2.2 19:58:33 26° SSW 19:59:11 27° S 20:02:41 10° SE visible
22 Dec 2.4 19:48:35 24° S 19:48:35 24° S 19:51:53 10° SE visible
